Regional Weather Roundup
Issued by NWS Kansas City/Pleasant Hill, MO

Home | Current Version | Previous Version | Text Only | Print | Product List | Glossary On
Versions: 1 2 3 4 5 6 7 8 9 10 11 12 13 14 15 16 17 18 19 20 21 22 23 24 25 26 27 28 29 30 31 32 33 34 35 36 37 38 39 40 41 42 43 44 45 46 47 48 49 50
000
ASUS43 KEAX 062010
RWREAX

WEATHER ROUNDUP FOR EASTERN KANSAS AND NORTHWEST MISSOURI
NATIONAL WEATHER SERVICE KANSAS CITY/PLEASANT HILL MO
200 PM CST FRI MAR 06 2015

KSZ040-057-103>105-MOZ028-029-037-043-062100-
...KANSAS CITY METROPOLITAN AREA...

CITY           SKY/WX    TMP DP  RH WIND       PRES   REMARKS
K.C. INTL      MOSUNNY   55  24  30 SW13      30.25F
K.C. DOWNTOWN  SUNNY     57  24  28 W10       30.26
LEES SUMMIT    SUNNY     54  26  34 SW16G22   30.27F
OLATHE - IXD   SUNNY     54  30  40 SW15      30.27F
OLATHE - OJC   SUNNY     53  28  38 SW15G24   30.26F
LAWRENCE       SUNNY     57  25  29 SW13G20   30.26

$$

MOZ001>008-011>017-020>025-030>033-038>040-044>046-053-054-062100-
...NORTHERN AND CENTRAL MISSOURI...

CITY           SKY/WX    TMP DP  RH WIND       PRES   REMARKS
ST. JOSEPH     SUNNY     57  24  28 SW10      30.23F
MOSBY          CLEAR     54  23  30 SW13      30.25F
WARRENSBURG    SUNNY     52  28  40 SW17G23   30.28F
WHITEMAN AFB   SUNNY     51  29  42 SW18G25   30.26F
CLINTON        SUNNY     52  32  46 W20       30.31F
SEDALIA        SUNNY     51  30  44 SW17      30.28
WARSAW         NOT AVBL
MARSHALL       SUNNY     54  30  40 SW17      30.26F
CHILLICOTHE      N/A     55  25  31 SW10G17   30.23F
MOBERLY        SUNNY     48  25  40 SW15G23   30.25F
KIRKSVILLE     SUNNY     52  24  33 W9G20     30.21

$$

MOZ041-047>049-056>058-063>065-088>090-097-062100-
...EASTERN AND SOUTHERN MISSOURI...

CITY           SKY/WX    TMP DP  RH WIND       PRES   REMARKS
ST. LOUIS INTL MOSUNNY   47  19  33 S16       30.30F
SPIRIT OF STL  SUNNY     47  22  37 SW16G26   30.29
COLUMBIA       SUNNY     53  28  38 SW13G25   30.26
JEFFERSON CITY SUNNY     53  24  32 SW17G24   30.28F
MEXICO         SUNNY     48  34  57 W18       30.26F
HANNIBAL       SUNNY     48  23  37 SW10      30.24F
ROLLA          SUNNY     48  25  40 SW21      30.29
OSAGE BEACH    SUNNY     52  27  37 SW18G25   30.30F
SPRINGFIELD    SUNNY     49  27  42 SW17      30.36
BRANSON        SUNNY     48  23  37 W7        30.41F
NEVADA         SUNNY     52  30  43 SW15      30.34F
JOPLIN         SUNNY     52  29  41 SW13G24   30.37
WEST PLAINS    SUNNY     40  21  46 S10       30.41F WCI  33

$$

IAZ060-094-KSZ022-034>040-054-083-096-NEZ052-066-093-062100-
...KANSAS...SOUTHEAST NEBRASKA AND IOWA...

CITY           SKY/WX    TMP DP  RH WIND       PRES   REMARKS
TOPEKA         SUNNY     59  22  24 W12G22    30.25F
MANHATTAN      SUNNY     60  19  20 MISG      30.24F
EMPORIA        SUNNY     58  27  30 SW20G25   30.27
CHANUTE        SUNNY     56  29  35 SW17G25   30.33
WICHITA        SUNNY     58  28  32 SW22      30.30F
OMAHA          MOSUNNY   60  19  20 SW10      30.13
LINCOLN        SUNNY     62  16  16 SW14      30.17
FALLS CITY     SUNNY     61  17  18 W13       30.20
LAMONI         SUNNY     53  24  32 W14       30.18F
DES MOINES     MOSUNNY   52  21  29 SW13      30.15

$$



USA.gov is the U.S. government's official web portal to all federal, state and local government web resources and services.